Location: Austin
(30.3000°N, 97.7500°W)
Time: 22:42:17
(UTC-06:00)

FengYun 1-2 T - Pass Details

Date: 03 December 2025
Orbit: 845 x 879 km, 98.8° (Epoch: 07 December)

Event Time Altitude Azimuth Distance (km) Brightness Sun altitude
Rises 05:34:23 0° 5° (N) 3,474 7.3 -20.6°
Reaches altitude 10° 05:36:51 10° 360° (N) 2,535 6.5 -20.1°
Maximum altitude 05:42:13 48° 287° (WNW) 1,141 4.4 -18.9°
Drops below altitude 10° 05:47:35 10° 215° (SW) 2,524 6.5 -17.8°
Sets 05:50:03 0° 209° (SSW) 3,458 7.2 -17.3°
